"Pseudo-MPEC" for A11Gf3x

Created 2026 Sep 3 6:35:03 UT using Find_Orb

Click here for an explanation of pseudo-MPECs

 
 Astrometry: 
     A11Gf3x*0C2026 09 02.92981722 18 45.686-22 22 59.16   ~92NZ 14.93oVNEOCPM22
     A11Gf3x 0C2026 09 02.93297222 18 43.464-22 22 50.66   ~92NZ 14.87oVNEOCPM22
     A11Gf3x 0C2026 09 02.94291622 18 36.761-22 22 23.66   ~92NZ 14.80oVNEOCPM22
     A11Gf3x 0C2026 09 02.94832622 18 33.190-22 22 07.72   ~92NZ 15.16oVNEOCPM22
     A11Gf3x KC2026 09 03.23425022 20 40.231-22 56 04.52   ~9365 15.8 VZNEOCPH36
     A11Gf3x KC2026 09 03.23729722 20 38.477-22 55 57.83   ~9365 15.7 VZNEOCPH36
     A11Gf3x KC2026 09 03.24034622 20 36.826-22 55 50.92   ~9365 16.4 VZNEOCPH36

Station data:
(H36) Sandlot Observatory, Scranton  (N38.797718 W95.706550)  US/Kansas.
   Observer G. Hug. 0.56-m reflector + CCD.
(M22) ATLAS South Africa, Sutherland  (S32.380156 E20.810590)  South Africa.
   Observers L. Denneau, R. Siverd, J. Tonry, H. Weiland. Measurers L.
   Denneau, N. Erasmus, A. Fitzsimmons, J. Robinson, R. Siverd, J. Tonry, H.
   Weiland. 0.5-m f/2.0 Schmidt + CCD.

Orbital elements:  A11Gf3x
   Perigee 2026 Aug 30.880920 +/- 0.639 TT = 21:08:31.4 (JD 2461283.380920)
Epoch 2026 Sep  3.0 TT = JDT 2461286.5                           AutoNEOCP
q  6582.594393 +/- 145              (J2000 equator)
H   27.01 G 0.15                    Peri.  149.638736 +/- 3.4
z -28.2901849957 +/- 396            Node    13.437953 +/- 0.8
e   1.00124482 +/- 0.0174           Incl.   33.527666 +/- 0.50
From 7 observations 2026 Sept. 2-3 (7.5 hr); mean residual 0".57
Residuals in arcseconds: 
260902 M22  .55+  .58-    260902 M22  .23+  .26+    260903 H36  1.4+  .16+    
260902 M22  .47-  .09+    260903 H36  .97-  .20-    
260902 M22  .29-  .26+    260903 H36  .49-  .01+    

Ephemerides (geocentric):
Date (UTC) HH   RA             Dec           delta  r     elong  mag " sig PA
---- --------  ------------   ------------  ------ ------ -----  --- --------
2026 09 03 07  22 20 46.288   -22 18 00.65  537109 1.0122 164.0 15.7 28.7   9
2026 09 03 08  22 20 58.250   -22 16 40.31  541572 1.0122 164.0 15.7 34.3  16
2026 09 03 09  22 21 10.005   -22 15 21.23  546018 1.0123 164.0 15.7 40.9  22
2026 09 03 10  22 21 21.561   -22 14 03.36  550448 1.0123 164.0 15.7 48.3  27
2026 09 03 11  22 21 32.923   -22 12 46.67  554862 1.0123 164.0 15.8 56.6  31
2026 09 03 12  22 21 44.095   -22 11 31.13  559260 1.0123 164.0 15.8 65.6  34
2026 09 03 13  22 21 55.084   -22 10 16.71  563641 1.0123 164.0 15.8 75.4  37
2026 09 03 14  22 22 05.894   -22 09 03.38  568008 1.0123 164.0 15.8 85.7  39
2026 09 03 15  22 22 16.529   -22 07 51.12  572359 1.0124 164.0 15.8 96.7  41
2026 09 03 16  22 22 26.995   -22 06 39.89  576695 1.0124 164.0 15.8  108  42
2026 09 03 17  22 22 37.295   -22 05 29.67  581017 1.0124 164.1 15.9  120  44
2026 09 03 18  22 22 47.435   -22 04 20.43  585324 1.0124 164.1 15.9  133  45
2026 09 03 19  22 22 57.417   -22 03 12.16  589616 1.0124 164.1 15.9  146  46
2026 09 03 20  22 23 07.246   -22 02 04.81  593895 1.0125 164.1 15.9  159  47
2026 09 03 21  22 23 16.925   -22 00 58.39  598159 1.0125 164.1 15.9  173  48
2026 09 03 22  22 23 26.459   -21 59 52.85  602411 1.0125 164.1 15.9  187  49
2026 09 03 23  22 23 35.851   -21 58 48.18  606648 1.0125 164.1 15.9  202  49
2026 09 04 00  22 23 45.103   -21 57 44.36  610872 1.0125 164.1 16.0  217  50
2026 09 04 01  22 23 54.221   -21 56 41.37  615084 1.0125 164.1 16.0  232  51
2026 09 04 02  22 24 03.206   -21 55 39.19  619282 1.0126 164.1 16.0  247  51
2026 09 04 03  22 24 12.061   -21 54 37.79  623468 1.0126 164.1 16.0  263  52
2026 09 04 04  22 24 20.791   -21 53 37.17  627641 1.0126 164.1 16.0  279  52
2026 09 04 05  22 24 29.397   -21 52 37.31  631802 1.0126 164.1 16.0  295  52
2026 09 04 06  22 24 37.882   -21 51 38.18  635951 1.0126 164.1 16.0  311  53
2026 09 04 07  22 24 46.250   -21 50 39.78  640088 1.0126 164.1 16.1  328  53
2026 09 04 08  22 24 54.502   -21 49 42.08  644213 1.0127 164.1 16.1  345  53
2026 09 04 09  22 25 02.641   -21 48 45.06  648327 1.0127 164.1 16.1  362  54
2026 09 04 10  22 25 10.671   -21 47 48.73  652429 1.0127 164.1 16.1  379  54
2026 09 04 11  22 25 18.592   -21 46 53.05  656520 1.0127 164.1 16.1  396  54
2026 09 04 12  22 25 26.408   -21 45 58.02  660599 1.0127 164.1 16.1  414  54
2026 09 04 13  22 25 34.120   -21 45 03.61  664668 1.0127 164.1 16.1  431  55
2026 09 04 14  22 25 41.731   -21 44 09.83  668726 1.0128 164.1 16.2  449  55
2026 09 04 15  22 25 49.244   -21 43 16.65  672773 1.0128 164.1 16.2  467  55
2026 09 04 16  22 25 56.659   -21 42 24.06  676809 1.0128 164.1 16.2  485  55
2026 09 04 17  22 26 03.979   -21 41 32.06  680836 1.0128 164.1 16.2  503  55
2026 09 04 18  22 26 11.206   -21 40 40.62  684851 1.0128 164.1 16.2  521  55
2026 09 04 19  22 26 18.342   -21 39 49.73  688857 1.0128 164.1 16.2  539  56
2026 09 04 20  22 26 25.389   -21 38 59.39  692853 1.0129 164.0 16.2  557  56
2026 09 04 21  22 26 32.348   -21 38 09.58  696839 1.0129 164.0 16.2  576  56
2026 09 04 22  22 26 39.221   -21 37 20.30  700815 1.0129 164.0 16.3  594  56
2026 09 04 23  22 26 46.011   -21 36 31.52  704781 1.0129 164.0 16.3  612  56
2026 09 05 00  22 26 52.717   -21 35 43.25  708738 1.0129 164.0 16.3  631  56
2026 09 05 01  22 26 59.343   -21 34 55.47  712686 1.0129 164.0 16.3  649  56
2026 09 05 02  22 27 05.889   -21 34 08.17  716624 1.0129 164.0 16.3  668  56
2026 09 05 03  22 27 12.358   -21 33 21.34  720553 1.0130 164.0 16.3  687  57
2026 09 05 04  22 27 18.750   -21 32 34.98  724473 1.0130 164.0 16.3  705  57
2026 09 05 05  22 27 25.068   -21 31 49.07  728385 1.0130 164.0 16.3  724  57
2026 09 05 06  22 27 31.312   -21 31 03.60  732287 1.0130 164.0 16.4  742  57